QPF
0.00 0.00 0.00 0.00 0.01 0.01 0.01 0.01 0.01 0.01 0.01 0.02 0.02 0.01 0.01 0.00 0.00 0.00 0.01 0.02 0.02 0.02 0.02 0.03 0.02 0.02 0.03 0.04 0.05 0.04 0.05 0.07 0.07 0.06 0.06 0.07 0.07 0.08 0.07 0.08 0.09 0.05 0.03
0.01 0.00 0.00 0.00 0.00 0.00 0.00 0.00 0.01 0.01 0.01 0.01 0.02 0.02 0.02 0.01 0.00 0.00 0.01 0.03 0.03 0.02 0.02 0.03 0.02 0.01 0.02 0.05 0.05 0.03 0.03 0.04 0.04 0.05 0.05 0.04 0.04 0.05 0.05 0.05 0.05 0.03 0.03
0.01 0.01 0.00 0.00 0.00 0.00 0.00 0.00 0.00 0.02 0.03 0.02 0.02 0.02 0.02 0.02 0.01 0.01 0.01 0.03 0.04 0.03 0.04 0.04 0.04 0.03 0.02 0.04 0.04 0.02 0.02 0.03 0.04 0.04 0.05 0.03 0.03 0.03 0.02 0.02 0.03 0.03 0.03
0.01 0.00 0.00 0.00 0.00 0.00 0.00 0.00 0.00 0.00 0.02 0.03 0.02 0.02 0.01 0.02 0.03 0.03 0.02 0.03 0.06 0.07 0.07 0.07 0.05 0.04 0.03 0.04 0.04 0.03 0.03 0.04 0.05 0.04 0.04 0.04 0.03 0.03 0.01 0.01 0.01 0.02 0.02
0.01 0.00 0.00 0.00 0.01 0.01 0.00 0.00 0.00 0.00 0.00 0.01 0.02 0.02 0.02 0.03 0.03 0.03 0.03 0.05 0.05 0.05 0.06 0.07 0.05 0.04 0.03 0.02 0.03 0.05 0.05 0.05 0.05 0.04 0.03 0.03 0.04 0.03 0.02 0.01 0.01 0.01 0.02
0.01 0.00 0.01 0.01 0.01 0.00 0.00 0.00 0.01 0.00 0.01 0.00 0.00 0.01 0.01 0.02 0.02 0.03 0.04 0.05 0.05 0.04 0.04 0.04 0.04 0.04 0.03 0.03 0.03 0.05 0.05 0.04 0.04 0.04 0.04 0.05 0.06 0.05 0.03 0.01 0.01 0.01 0.01
0.01 0.01 0.01 0.01 0.00 0.01 0.01 0.01 0.01 0.01 0.01 0.01 0.01 0.01 0.01 0.01 0.02 0.03 0.04 0.04 0.04 0.03 0.02 0.02 0.04 0.04 0.05 0.05 0.05 0.05 0.04 0.05 0.04 0.04 0.05 0.07 0.08 0.06 0.04 0.03 0.02 0.01 0.01
0.01 0.01 0.00 0.01 0.01 0.01 0.02 0.02 0.01 0.01 0.01 0.01 0.01 0.02 0.02 0.01 0.02 0.02 0.03 0.03 0.03 0.02 0.03 0.03 0.04 0.05 0.06 0.05 0.05 0.06 0.05 0.06 0.06 0.05 0.06 0.06 0.08 0.07 0.05 0.05 0.06 0.03 0.01
0.00 0.01 0.01 0.02 0.03 0.02 0.03 0.02 0.02 0.02 0.02 0.02 0.02 0.01 0.02 0.02 0.02 0.03 0.04 0.04 0.04 0.03 0.03 0.03 0.05 0.05 0.06 0.05 0.04 0.04 0.04 0.04 0.05 0.06 0.07 0.07 0.07 0.06 0.05 0.07 0.08 0.06 0.02
0.01 0.01 0.02 0.04 0.05 0.04 0.05 0.04 0.03 0.03 0.03 0.03 0.02 0.02 0.02 0.02 0.04 0.05 0.04 0.05 0.04 0.04 0.04 0.04 0.05 0.05 0.05 0.05 0.05 0.05 0.06 0.06 0.06 0.06 0.05 0.05 0.06 0.07 0.07 0.08 0.10 0.09 0.06
0.01 0.02 0.04 0.05 0.07 0.07 0.07 0.05 0.03 0.02 0.03 0.03 0.03 0.02 0.02 0.03 0.05 0.06 0.06 0.06 0.05 0.05 0.05 0.06 0.05 0.03 0.04 0.04 0.06 0.06 0.08 0.06 0.06 0.07 0.06 0.05 0.07 0.08 0.08 0.09 0.11 0.10 0.08
0.02 0.04 0.05 0.05 0.04 0.03 0.03 0.04 0.03 0.02 0.02 0.03 0.04 0.04 0.04 0.05 0.07 0.08 0.08 0.09 0.08 0.05 0.04 0.06 0.05 0.04 0.04 0.05 0.05 0.05 0.07 0.07 0.06 0.08 0.08 0.06 0.07 0.05 0.06 0.08 0.09 0.10 0.08
0.03 0.03 0.05 0.05 0.03 0.01 0.02 0.03 0.03 0.03 0.03 0.06 0.11 0.08 0.07 0.09 0.11 0.11 0.10 0.08 0.05 0.03 0.05 0.07 0.05 0.05 0.05 0.05 0.04 0.07 0.07 0.06 0.06 0.07 0.07 0.06 0.05 0.05 0.07 0.07 0.07 0.09 0.10
0.02 0.03 0.03 0.02 0.01 0.02 0.02 0.03 0.04 0.04 0.05 0.07 0.10 0.09 0.07 0.08 0.13 0.14 0.10 0.07 0.06 0.05 0.06 0.09 0.08 0.06 0.07 0.07 0.07 0.09 0.07 0.07 0.06 0.06 0.06 0.06 0.06 0.07 0.08 0.07 0.05 0.06 0.07
0.03 0.06 0.06 0.03 0.03 0.03 0.04 0.04 0.05 0.04 0.05 0.06 0.05 0.05 0.06 0.07 0.06 0.06 0.05 0.06 0.08 0.10 0.09 0.08 0.08 0.08 0.07 0.08 0.10 0.09 0.08 0.08 0.06 0.05 0.04 0.05 0.07 0.08 0.08 0.06 0.04 0.04 0.05
0.05 0.08 0.07 0.04 0.05 0.06 0.05 0.05 0.06 0.07 0.08 0.07 0.06 0.07 0.09 0.08 0.07 0.06 0.06 0.10 0.11 0.09 0.09 0.09 0.09 0.11 0.08 0.09 0.11 0.11 0.11 0.10 0.08 0.05 0.03 0.04 0.05 0.06 0.06 0.05 0.05 0.05 0.04
0.05 0.07 0.07 0.06 0.07 0.08 0.07 0.06 0.06 0.06 0.07 0.07 0.08 0.10 0.15 0.17 0.14 0.11 0.10 0.13 0.14 0.11 0.08 0.08 0.08 0.06 0.07 0.09 0.10 0.12 0.14 0.12 0.06 0.03 0.03 0.03 0.03 0.03 0.04 0.04 0.05 0.04 0.04
0.05 0.07 0.08 0.08 0.07 0.08 0.07 0.06 0.06 0.06 0.08 0.11 0.13 0.13 0.14 0.16 0.18 0.15 0.13 0.15 0.16 0.11 0.08 0.06 0.06 0.05 0.05 0.06 0.08 0.11 0.10 0.05 0.03 0.02 0.02 0.02 0.02 0.03 0.03 0.02 0.03 0.03 0.03
0.03 0.06 0.10 0.13 0.13 0.12 0.13 0.13 0.12 0.11 0.13 0.11 0.11 0.11 0.12 0.13 0.15 0.18 0.16 0.13 0.10 0.07 0.05 0.04 0.05 0.03 0.03 0.04 0.05 0.06 0.05 0.04 0.03 0.03 0.02 0.02 0.01 0.03 0.02 0.01 0.02 0.02 0.02
0.03 0.03 0.04 0.10 0.10 0.10 0.10 0.11 0.11 0.12 0.13 0.12 0.12 0.11 0.10 0.10 0.11 0.14 0.16 0.12 0.08 0.05 0.04 0.04 0.05 0.03 0.03 0.03 0.03 0.04 0.04 0.04 0.04 0.04 0.04 0.03 0.02 0.03 0.03 0.02 0.03 0.04 0.04
0.03 0.04 0.05 0.08 0.10 0.06 0.06 0.08 0.11 0.13 0.14 0.14 0.12 0.09 0.07 0.07 0.08 0.08 0.09 0.08 0.08 0.07 0.05 0.05 0.04 0.03 0.04 0.04 0.03 0.03 0.03 0.04 0.04 0.04 0.05 0.06 0.06 0.05 0.04 0.03 0.03 0.03 0.04
0.02 0.02 0.03 0.05 0.11 0.11 0.08 0.09 0.09 0.11 0.13 0.12 0.10 0.08 0.08 0.07 0.07 0.07 0.07 0.07 0.06 0.05 0.05 0.05 0.04 0.03 0.03 0.04 0.03 0.04 0.05 0.04 0.04 0.04 0.05 0.05 0.06 0.05 0.04 0.04 0.03 0.04 0.04
0.03 0.02 0.02 0.03 0.07 0.10 0.10 0.09 0.08 0.08 0.09 0.09 0.09 0.07 0.07 0.08 0.07 0.06 0.06 0.06 0.06 0.05 0.04 0.03 0.03 0.03 0.03 0.03 0.03 0.03 0.03 0.03 0.04 0.04 0.05 0.05 0.04 0.04 0.04 0.04 0.04 0.03 0.03
0.03 0.04 0.04 0.05 0.06 0.07 0.07 0.07 0.05 0.05 0.06 0.07 0.07 0.06 0.06 0.07 0.06 0.05 0.04 0.04 0.04 0.03 0.02 0.02 0.02 0.02 0.03 0.02 0.02 0.02 0.02 0.03 0.03 0.03 0.03 0.03 0.04 0.04 0.04 0.03 0.03 0.03 0.04
0.02 0.05 0.07 0.07 0.07 0.05 0.04 0.04 0.03 0.03 0.03 0.05 0.07 0.06 0.05 0.05 0.04 0.03 0.02 0.02 0.02 0.02 0.03 0.04 0.03 0.03 0.02 0.03 0.04 0.03 0.04 0.04 0.05 0.05 0.05 0.04 0.04 0.04 0.04 0.04 0.05 0.06 0.09
0.03 0.03 0.03 0.05 0.04 0.02 0.02 0.02 0.03 0.07 0.08 0.09 0.09 0.07 0.05 0.03 0.03 0.02 0.02 0.02 0.02 0.02 0.03 0.03 0.03 0.03 0.03 0.04 0.04 0.03 0.05 0.06 0.07 0.06 0.05 0.04 0.04 0.04 0.04 0.05 0.06 0.07 0.08
MSLP
1013.94 1013.82 1013.78 1013.81 1013.89 1014.03 1014.22 1014.45 1014.69 1014.95 1015.19 1015.41 1015.59 1015.72 1015.81 1015.86 1015.89 1015.90 1015.91 1015.94 1015.98 1016.04 1016.12 1016.20 1016.29 1016.38 1016.48 1016.59 1016.73 1016.89 1017.08 1017.27 1017.46 1017.63 1017.75 1017.81 1017.80 1017.73 1017.61 1017.47 1017.34 1017.25 1017.22
1013.56 1013.52 1013.54 1013.60 1013.71 1013.85 1014.03 1014.24 1014.50 1014.78 1015.07 1015.34 1015.58 1015.76 1015.87 1015.91 1015.89 1015.84 1015.79 1015.74 1015.73 1015.76 1015.82 1015.91 1016.01 1016.12 1016.22 1016.33 1016.45 1016.58 1016.74 1016.91 1017.10 1017.28 1017.45 1017.57 1017.63 1017.62 1017.54 1017.42 1017.27 1017.14 1017.04
1012.99 1013.03 1013.13 1013.25 1013.39 1013.55 1013.72 1013.94 1014.20 1014.50 1014.83 1015.16 1015.45 1015.68 1015.81 1015.86 1015.82 1015.73 1015.61 1015.51 1015.45 1015.44 1015.49 1015.57 1015.68 1015.79 1015.89 1015.98 1016.07 1016.16 1016.28 1016.43 1016.62 1016.83 1017.05 1017.23 1017.37 1017.43 1017.41 1017.31 1017.17 1017.00 1016.85
1012.28 1012.40 1012.58 1012.77 1012.96 1013.14 1013.32 1013.54 1013.81 1014.14 1014.50 1014.88 1015.23 1015.50 1015.67 1015.74 1015.69 1015.58 1015.43 1015.29 1015.20 1015.16 1015.19 1015.27 1015.37 1015.47 1015.56 1015.62 1015.67 1015.73 1015.81 1015.94 1016.12 1016.34 1016.59 1016.83 1017.03 1017.15 1017.18 1017.11 1016.96 1016.77 1016.57
1011.52 1011.72 1011.98 1012.24 1012.48 1012.69 1012.88 1013.11 1013.39 1013.73 1014.13 1014.55 1014.95 1015.28 1015.50 1015.60 1015.58 1015.47 1015.31 1015.16 1015.05 1014.99 1015.01 1015.07 1015.17 1015.25 1015.32 1015.35 1015.36 1015.37 1015.40 1015.49 1015.64 1015.86 1016.11 1016.38 1016.60 1016.76 1016.81 1016.75 1016.60 1016.38 1016.14
1010.82 1011.09 1011.43 1011.75 1012.04 1012.27 1012.49 1012.72 1013.01 1013.36 1013.79 1014.25 1014.69 1015.08 1015.36 1015.51 1015.54 1015.46 1015.32 1015.18 1015.06 1015.00 1015.00 1015.06 1015.13 1015.19 1015.22 1015.22 1015.18 1015.14 1015.12 1015.15 1015.25 1015.42 1015.64 1015.88 1016.10 1016.24 1016.28 1016.21 1016.04 1015.80 1015.52
1010.29 1010.62 1011.01 1011.39 1011.72 1011.98 1012.21 1012.44 1012.73 1013.10 1013.54 1014.04 1014.54 1014.98 1015.33 1015.55 1015.64 1015.61 1015.51 1015.39 1015.28 1015.22 1015.20 1015.24 1015.28 1015.31 1015.31 1015.26 1015.17 1015.06 1014.98 1014.94 1014.96 1015.06 1015.21 1015.37 1015.52 1015.61 1015.60 1015.49 1015.28 1015.00 1014.69
1010.00 1010.37 1010.81 1011.22 1011.58 1011.85 1012.09 1012.33 1012.62 1012.99 1013.46 1013.98 1014.53 1015.04 1015.46 1015.75 1015.91 1015.94 1015.89 1015.80 1015.70 1015.63 1015.60 1015.60 1015.61 1015.60 1015.55 1015.45 1015.30 1015.14 1014.98 1014.86 1014.79 1014.78 1014.82 1014.88 1014.92 1014.91 1014.82 1014.63 1014.37 1014.04 1013.70
1009.97 1010.36 1010.82 1011.26 1011.62 1011.90 1012.14 1012.38 1012.67 1013.06 1013.54 1014.10 1014.69 1015.26 1015.75 1016.12 1016.34 1016.44 1016.44 1016.37 1016.28 1016.20 1016.14 1016.10 1016.06 1016.00 1015.90 1015.75 1015.56 1015.33 1015.10 1014.90 1014.73 1014.61 1014.53 1014.46 1014.37 1014.23 1014.03 1013.74 1013.40 1013.02 1012.63
1010.16 1010.57 1011.03 1011.46 1011.82 1012.10 1012.34 1012.58 1012.88 1013.28 1013.78 1014.37 1015.01 1015.63 1016.18 1016.61 1016.90 1017.05 1017.09 1017.04 1016.96 1016.86 1016.76 1016.68 1016.59 1016.47 1016.32 1016.13 1015.89 1015.62 1015.34 1015.06 1014.81 1014.58 1014.38 1014.17 1013.94 1013.67 1013.34 1012.95 1012.52 1012.07 1011.63
1010.52 1010.92 1011.36 1011.78 1012.12 1012.39 1012.63 1012.88 1013.20 1013.62 1014.14 1014.76 1015.43 1016.09 1016.68 1017.16 1017.50 1017.69 1017.76 1017.73 1017.64 1017.52 1017.39 1017.26 1017.12 1016.96 1016.77 1016.54 1016.28 1015.98 1015.67 1015.35 1015.03 1014.72 1014.41 1014.09 1013.74 1013.34 1012.89 1012.39 1011.87 1011.34 1010.84
1010.94 1011.32 1011.73 1012.12 1012.44 1012.71 1012.95 1013.22 1013.56 1014.01 1014.57 1015.21 1015.90 1016.59 1017.21 1017.72 1018.08 1018.30 1018.39 1018.37 1018.27 1018.13 1017.97 1017.80 1017.63 1017.44 1017.22 1016.98 1016.71 1016.41 1016.09 1015.75 1015.41 1015.05 1014.67 1014.27 1013.82 1013.31 1012.76 1012.16 1011.55 1010.94 1010.37
1011.34 1011.68 1012.06 1012.41 1012.71 1012.98 1013.25 1013.56 1013.94 1014.42 1015.01 1015.67 1016.38 1017.07 1017.70 1018.22 1018.59 1018.83 1018.93 1018.91 1018.82 1018.67 1018.50 1018.31 1018.11 1017.91 1017.69 1017.45 1017.19 1016.91 1016.60 1016.28 1015.94 1015.57 1015.16 1014.70 1014.18 1013.61 1012.97 1012.30 1011.61 1010.92 1010.28
1011.61 1011.92 1012.26 1012.59 1012.89 1013.19 1013.50 1013.85 1014.29 1014.82 1015.44 1016.12 1016.83 1017.51 1018.13 1018.64 1019.01 1019.25 1019.36 1019.37 1019.29 1019.15 1018.98 1018.80 1018.60 1018.39 1018.18 1017.96 1017.72 1017.47 1017.20 1016.91 1016.59 1016.24 1015.83 1015.35 1014.81 1014.19 1013.51 1012.78 1012.03 1011.29 1010.58
1011.69 1011.98 1012.29 1012.62 1012.95 1013.29 1013.67 1014.10 1014.61 1015.19 1015.84 1016.54 1017.23 1017.90 1018.49 1018.98 1019.35 1019.59 1019.72 1019.75 1019.70 1019.59 1019.45 1019.29 1019.11 1018.92 1018.73 1018.53 1018.32 1018.10 1017.87 1017.62 1017.33 1017.00 1016.62 1016.16 1015.62 1015.00 1014.30 1013.55 1012.77 1011.99 1011.24
1011.54 1011.82 1012.14 1012.49 1012.87 1013.30 1013.77 1014.29 1014.88 1015.53 1016.22 1016.91 1017.60 1018.23 1018.79 1019.25 1019.61 1019.86 1020.02 1020.08 1020.08 1020.03 1019.94 1019.82 1019.67 1019.51 1019.34 1019.15 1018.97 1018.77 1018.57 1018.35 1018.10 1017.81 1017.46 1017.03 1016.52 1015.92 1015.23 1014.49 1013.71 1012.93 1012.17
1011.16 1011.45 1011.80 1012.21 1012.68 1013.21 1013.79 1014.43 1015.12 1015.83 1016.55 1017.25 1017.91 1018.51 1019.04 1019.48 1019.83 1020.09 1020.28 1020.41 1020.47 1020.49 1020.46 1020.39 1020.29 1020.15 1020.00 1019.83 1019.65 1019.46 1019.27 1019.07 1018.85 1018.59 1018.28 1017.89 1017.42 1016.87 1016.23 1015.53 1014.79 1014.03 1013.29
1010.56 1010.89 1011.31 1011.81 1012.40 1013.05 1013.77 1014.52 1015.30 1016.07 1016.82 1017.52 1018.17 1018.74 1019.23 1019.65 1020.01 1020.30 1020.54 1020.73 1020.87 1020.96 1021.01 1020.99 1020.93 1020.82 1020.68 1020.51 1020.32 1020.13 1019.95 1019.75 1019.55 1019.32 1019.04 1018.70 1018.29 1017.80 1017.23 1016.60 1015.92 1015.22 1014.54
1009.82 1010.22 1010.73 1011.35 1012.06 1012.85 1013.70 1014.57 1015.43 1016.26 1017.03 1017.74 1018.36 1018.90 1019.38 1019.79 1020.16 1020.49 1020.78 1021.04 1021.26 1021.44 1021.55 1021.59 1021.56 1021.48 1021.34 1021.16 1020.97 1020.77 1020.57 1020.38 1020.18 1019.98 1019.74 1019.46 1019.12 1018.70 1018.21 1017.66 1017.07 1016.46 1015.85
1009.04 1009.54 1010.15 1010.90 1011.74 1012.66 1013.62 1014.59 1015.52 1016.39 1017.18 1017.88 1018.49 1019.02 1019.48 1019.90 1020.29 1020.66 1021.01 1021.34 1021.63 1021.87 1022.04 1022.13 1022.14 1022.07 1021.94 1021.76 1021.55 1021.35 1021.14 1020.96 1020.78 1020.61 1020.41 1020.19 1019.91 1019.58 1019.18 1018.73 1018.23 1017.72 1017.20
1008.36 1008.95 1009.68 1010.54 1011.50 1012.52 1013.57 1014.61 1015.59 1016.49 1017.29 1017.98 1018.58 1019.09 1019.56 1019.99 1020.40 1020.81 1021.22 1021.60 1021.95 1022.25 1022.46 1022.59 1022.63 1022.57 1022.45 1022.27 1022.08 1021.87 1021.68 1021.52 1021.37 1021.23 1021.09 1020.93 1020.72 1020.47 1020.15 1019.79 1019.39 1018.97 1018.54
1007.90 1008.58 1009.41 1010.36 1011.40 1012.50 1013.61 1014.68 1015.68 1016.58 1017.38 1018.06 1018.65 1019.16 1019.63 1020.08 1020.52 1020.96 1021.41 1021.83 1022.22 1022.55 1022.79 1022.94 1023.00 1022.96 1022.86 1022.70 1022.53 1022.36 1022.20 1022.08 1021.97 1021.89 1021.80 1021.70 1021.56 1021.37 1021.14 1020.86 1020.54 1020.19 1019.84
1007.74 1008.51 1009.41 1010.43 1011.52 1012.65 1013.77 1014.85 1015.84 1016.72 1017.49 1018.16 1018.74 1019.26 1019.74 1020.20 1020.67 1021.13 1021.60 1022.04 1022.44 1022.78 1023.03 1023.19 1023.26 1023.25 1023.17 1023.05 1022.92 1022.80 1022.71 1022.64 1022.60 1022.57 1022.55 1022.50 1022.42 1022.29 1022.11 1021.89 1021.63 1021.34 1021.04
1007.95 1008.78 1009.72 1010.76 1011.86 1012.98 1014.08 1015.13 1016.08 1016.93 1017.68 1018.33 1018.90 1019.43 1019.92 1020.39 1020.87 1021.35 1021.81 1022.25 1022.64 1022.96 1023.21 1023.36 1023.44 1023.44 1023.40 1023.33 1023.27 1023.21 1023.19 1023.20 1023.23 1023.27 1023.29 1023.30 1023.26 1023.17 1023.03 1022.84 1022.62 1022.37 1022.11
1008.51 1009.36 1010.32 1011.35 1012.42 1013.50 1014.54 1015.53 1016.43 1017.23 1017.95 1018.58 1019.15 1019.68 1020.18 1020.66 1021.14 1021.61 1022.06 1022.47 1022.83 1023.12 1023.33 1023.47 1023.55 1023.57 1023.57 1023.56 1023.56 1023.59 1023.65 1023.73 1023.83 1023.93 1024.00 1024.04 1024.02 1023.96 1023.83 1023.67 1023.46 1023.24 1023.00
1009.33 1010.19 1011.13 1012.12 1013.13 1014.14 1015.11 1016.01 1016.85 1017.60 1018.28 1018.90 1019.47 1020.00 1020.51 1021.00 1021.47 1021.92 1022.34 1022.71 1023.02 1023.27 1023.45 1023.56 1023.63 1023.67 1023.71 1023.75 1023.82 1023.93 1024.06 1024.21 1024.36 1024.50 1024.61 1024.66 1024.66 1024.60 1024.48 1024.31 1024.12 1023.91 1023.69
Thickness
5795 5795 5793 5791 5788 5784 5781 5779 5776 5774 5770 5766 5762 5758 5756 5755 5754 5752 5750 5748 5747 5745 5743 5742 5740 5740 5738 5738 5737 5735 5733 5732 5732 5730 5728 5730 5732 5731 5731 5730 5728 5727 5726
5792 5793 5792 5791 5788 5785 5783 5780 5778 5775 5773 5769 5766 5762 5759 5757 5755 5753 5751 5749 5747 5745 5743 5741 5740 5740 5738 5737 5736 5734 5732 5731 5731 5728 5724 5721 5724 5728 5731 5729 5728 5728 5726
5793 5793 5792 5792 5790 5787 5785 5783 5780 5777 5775 5771 5767 5763 5759 5756 5753 5751 5750 5749 5747 5745 5743 5741 5740 5739 5738 5736 5735 5734 5732 5729 5729 5728 5724 5718 5715 5720 5726 5728 5728 5728 5727
5800 5797 5795 5794 5793 5791 5789 5786 5782 5778 5776 5772 5767 5762 5757 5753 5753 5752 5750 5749 5747 5745 5743 5742 5740 5739 5738 5737 5736 5735 5733 5731 5727 5727 5726 5724 5722 5717 5717 5724 5727 5728 5727
5804 5802 5801 5799 5797 5795 5791 5788 5783 5779 5776 5773 5769 5764 5760 5757 5755 5753 5750 5749 5747 5746 5744 5743 5741 5740 5739 5738 5737 5736 5734 5732 5730 5727 5726 5724 5722 5720 5716 5716 5722 5725 5727
5808 5807 5805 5801 5798 5796 5793 5788 5783 5780 5777 5773 5770 5766 5761 5758 5754 5752 5749 5748 5747 5746 5745 5743 5742 5740 5739 5738 5737 5736 5735 5733 5732 5730 5728 5725 5722 5720 5718 5717 5719 5721 5726
5810 5807 5804 5802 5799 5796 5793 5789 5784 5780 5778 5774 5771 5767 5764 5760 5757 5754 5751 5748 5747 5746 5746 5745 5743 5742 5741 5740 5738 5737 5735 5734 5733 5731 5730 5728 5727 5725 5723 5720 5719 5719 5723
5811 5810 5808 5805 5801 5798 5795 5791 5786 5781 5778 5775 5772 5769 5766 5762 5759 5756 5753 5751 5749 5748 5747 5746 5744 5743 5742 5741 5739 5738 5736 5735 5734 5733 5731 5729 5729 5727 5725 5723 5719 5717 5719
5812 5811 5809 5807 5804 5800 5797 5793 5788 5783 5780 5777 5773 5769 5766 5763 5760 5758 5755 5752 5751 5749 5748 5746 5745 5743 5742 5741 5739 5737 5736 5735 5734 5733 5732 5730 5730 5729 5728 5725 5723 5718 5715
5811 5811 5810 5808 5806 5803 5799 5795 5791 5786 5782 5778 5774 5771 5768 5765 5762 5758 5755 5753 5751 5749 5748 5746 5745 5744 5742 5740 5738 5737 5736 5735 5733 5732 5731 5730 5730 5729 5728 5726 5724 5721 5718
5808 5809 5809 5807 5805 5802 5798 5794 5789 5785 5781 5778 5774 5771 5768 5765 5762 5758 5756 5754 5752 5750 5748 5746 5744 5743 5741 5740 5738 5736 5735 5733 5732 5731 5730 5729 5729 5728 5727 5725 5724 5721 5719
5806 5807 5806 5803 5800 5798 5795 5792 5788 5784 5781 5778 5774 5771 5768 5765 5761 5759 5757 5755 5752 5751 5748 5746 5744 5742 5740 5739 5737 5735 5734 5732 5730 5729 5728 5728 5727 5726 5725 5724 5723 5721 5720
5800 5801 5801 5798 5796 5795 5793 5790 5786 5783 5781 5777 5773 5770 5767 5764 5761 5758 5756 5755 5752 5750 5748 5745 5743 5741 5740 5738 5737 5735 5733 5731 5729 5727 5726 5726 5724 5723 5722 5721 5720 5719 5719
5794 5794 5793 5793 5792 5791 5790 5788 5785 5783 5780 5776 5772 5768 5767 5764 5761 5758 5755 5753 5751 5749 5746 5744 5742 5740 5739 5737 5735 5734 5732 5730 5728 5727 5725 5723 5722 5720 5720 5719 5717 5716 5715
5787 5788 5788 5787 5787 5787 5787 5785 5783 5781 5778 5774 5770 5768 5766 5763 5760 5757 5754 5751 5749 5747 5745 5742 5740 5738 5736 5735 5733 5732 5730 5727 5726 5724 5722 5721 5720 5719 5717 5716 5714 5713 5711
5780 5781 5782 5782 5782 5782 5781 5780 5778 5777 5775 5771 5768 5766 5762 5759 5756 5754 5751 5748 5746 5744 5741 5739 5737 5735 5733 5732 5731 5729 5727 5725 5722 5720 5719 5718 5717 5715 5713 5711 5710 5708 5706
5775 5775 5776 5777 5777 5778 5777 5774 5773 5772 5770 5767 5765 5762 5758 5753 5751 5750 5747 5745 5742 5740 5737 5735 5732 5730 5729 5727 5726 5724 5723 5720 5718 5715 5714 5713 5712 5710 5708 5706 5704 5701 5699
5769 5770 5771 5771 5772 5772 5772 5770 5768 5766 5764 5762 5760 5758 5753 5750 5747 5745 5742 5740 5738 5735 5732 5730 5728 5726 5724 5723 5721 5719 5717 5714 5712 5710 5709 5707 5705 5704 5702 5700 5697 5694 5692
5764 5765 5766 5766 5766 5765 5765 5763 5761 5759 5757 5755 5753 5752 5749 5746 5742 5739 5737 5735 5732 5730 5728 5725 5722 5720 5719 5718 5716 5714 5711 5708 5706 5704 5702 5701 5699 5697 5695 5692 5688 5686 5684
5759 5759 5760 5760 5759 5758 5758 5755 5753 5752 5751 5749 5747 5746 5744 5741 5737 5734 5731 5729 5727 5724 5722 5719 5717 5715 5713 5712 5710 5708 5706 5702 5699 5697 5695 5693 5691 5689 5687 5685 5681 5677 5674
5752 5753 5752 5751 5750 5751 5751 5748 5746 5744 5744 5743 5741 5738 5737 5734 5731 5727 5724 5723 5720 5717 5714 5712 5709 5708 5706 5705 5703 5701 5699 5696 5692 5689 5687 5684 5682 5680 5678 5676 5673 5669 5667
5745 5745 5743 5741 5741 5742 5742 5740 5737 5736 5736 5735 5733 5730 5728 5726 5723 5720 5716 5714 5712 5709 5706 5703 5701 5699 5698 5697 5695 5693 5691 5689 5685 5681 5678 5676 5674 5671 5668 5665 5663 5660 5658
5737 5736 5735 5732 5731 5732 5733 5731 5727 5728 5727 5725 5722 5721 5718 5716 5713 5710 5707 5705 5703 5701 5697 5695 5693 5690 5689 5688 5686 5685 5682 5680 5676 5673 5670 5667 5664 5662 5659 5655 5653 5650 5647
5729 5728 5726 5724 5722 5722 5723 5721 5720 5719 5719 5716 5712 5711 5708 5704 5702 5700 5698 5696 5694 5692 5689 5687 5684 5682 5680 5678 5677 5675 5673 5670 5667 5664 5660 5657 5654 5651 5647 5644 5642 5638 5635
5719 5719 5718 5715 5714 5714 5714 5713 5712 5711 5709 5705 5703 5700 5697 5694 5691 5688 5685 5685 5683 5682 5681 5679 5676 5674 5671 5667 5666 5665 5663 5661 5658 5654 5650 5647 5643 5640 5636 5633 5629 5626 5622
5709 5709 5708 5707 5706 5706 5705 5704 5704 5703 5700 5696 5693 5691 5688 5685 5682 5680 5676 5673 5672 5671 5670 5668 5666 5663 5660 5658 5656 5654 5652 5649 5646 5644 5639 5634 5630 5627 5623 5620 5617 5613 5610